period_start,C,m1,H,J0,J1,J2,J3,J4,J5,JA,JB,JC,JD,JJ,JK,JN,#
2017-03-31 00:04:14,0.08,2.00,0.00,24.91,27.47,30.38,14.07,48.96,998.08,2029.95,2772.47,2559.78,2915.55,599.65,581.07,33.61,0000 0000 0000 0000 000000
2017-03-31 00:09:15,0.09,2.01,0.00,24.76,27.45,30.36,14.12,48.98,998.27,2029.97,2770.81,2558.79,2914.21,600.01,581.73,33.67,0000 0000 0000 0000 000000
2017-03-31 00:14:16,0.11,2.01,0.00,24.85,27.45,30.36,14.16,48.91,998.48,2029.96,2769.16,2557.66,2912.80,600.10,581.97,33.72,0000 0000 0000 0000 000000
2017-03-31 00:19:17,0.09,2.02,0.00,25.03,27.45,30.38,14.07,48.83,998.55,2029.92,2767.46,2556.47,2911.51,599.58,580.94,33.77,0000 0000 0000 0000 000000
2017-03-31 00:24:18,0.10,2.02,0.00,25.05,27.45,30.39,14.15,48.91,998.55,2029.91,2765.67,2555.16,2909.89,600.35,581.73,33.82,0000 0000 0000 0000 000000
2017-03-31 00:29:19,0.10,2.03,0.00,24.90,27.45,30.36,14.09,48.92,998.55,2029.84,2763.86,2553.92,2908.50,599.55,581.35,33.87,0000 0000 0000 0000 000000
2017-03-31 00:34:21,0.14,2.03,0.00,24.79,27.45,30.34,14.08,48.92,998.59,2029.88,2761.89,2552.47,2906.82,599.67,581.65,33.92,0000 0000 0000 0000 000000
2017-03-31 00:39:22,0.08,2.04,0.00,24.96,27.45,30.34,14.12,49.08,998.59,2029.70,2760.05,2551.15,2905.24,600.15,581.76,33.97,0000 0000 0000 0000 000000
2017-03-31 00:44:23,0.10,2.04,0.00,25.27,27.45,30.41,14.02,48.88,998.64,2029.69,2758.43,2549.94,2903.85,599.73,580.78,34.02,0000 0000 0000 0000 000000
2017-03-31 00:49:24,0.11,2.05,0.00,25.18,27.45,30.44,14.10,49.06,998.89,2029.57,2756.54,2548.59,2902.30,599.77,581.13,34.07,0000 0000 0000 0000 000000
2017-03-31 00:54:26,0.12,2.05,0.00,24.88,27.45,30.37,14.17,49.07,998.99,2029.48,2754.39,2547.11,2900.55,600.15,582.03,34.12,0000 0000 0000 0000 000000
2017-03-31 00:59:27,0.11,2.06,0.00,24.79,27.45,30.35,14.13,48.93,999.04,2029.26,2752.23,2545.58,2898.76,600.39,582.59,34.17,0000 0000 0000 0000 000000
2017-03-31 01:04:28,0.10,2.07,0.00,24.92,27.45,30.38,14.06,48.98,999.05,2029.14,2750.26,2544.20,2897.03,599.42,581.43,34.22,0000 0000 0000 0000 000000
2017-03-31 01:09:30,0.12,2.07,0.00,25.23,27.45,30.42,14.12,48.92,999.14,2029.11,2748.27,2542.77,2895.43,600.16,581.61,34.27,0000 0000 0000 0000 000000
2017-03-31 01:14:31,0.12,2.08,0.00,25.25,27.45,30.43,14.07,49.15,999.26,2029.12,2746.23,2541.25,2893.74,599.75,581.19,34.32,0000 0000 0000 0000 000000
2017-03-31 01:19:32,0.14,2.09,0.00,24.92,27.45,30.39,14.05,49.03,999.44,2029.06,2744.03,2539.71,2891.89,599.86,582.11,34.37,0000 0000 0000 0000 000000
2017-03-31 01:24:33,0.12,2.09,0.00,24.80,27.45,30.36,14.14,49.08,999.53,2029.04,2741.71,2538.12,2890.08,600.24,582.71,34.42,0000 0000 0000 0000 000000
2017-03-31 01:29:34,0.13,2.10,0.00,24.95,27.43,30.36,14.18,49.08,999.53,2029.04,2739.43,2536.53,2888.21,600.49,582.66,34.47,0000 0000 0000 0000 000000
2017-03-31 01:34:35,0.15,2.11,0.00,25.24,27.43,30.44,14.12,48.98,999.54,2029.05,2737.18,2534.92,2886.36,600.20,581.63,34.52,0000 0000 0000 0000 000000
2017-03-31 01:39:37,0.14,2.11,0.00,25.19,27.44,30.45,14.11,49.08,999.70,2029.03,2734.87,2533.24,2884.40,599.63,581.54,34.57,0000 0000 0000 0000 000000
2017-03-31 01:44:38,0.14,2.12,0.00,24.84,27.43,30.39,14.05,49.12,999.99,2029.03,2732.43,2531.63,2882.50,599.67,582.34,34.62,0000 0000 0000 0000 000000
2017-03-31 01:49:40,0.14,2.13,0.00,24.78,27.42,30.37,14.15,49.25,1000.02,2029.01,2730.08,2529.98,2880.62,599.66,582.49,34.67,0000 0000 0000 0000 000000
2017-03-31 01:54:41,0.13,2.14,0.00,25.05,27.42,30.40,14.17,49.18,1000.10,2029.01,2727.78,2528.40,2878.84,600.23,582.59,34.73,0000 0000 0000 0000 000000
2017-03-31 01:59:42,0.14,2.14,0.00,25.26,27.42,30.45,14.11,49.11,1000.49,2029.02,2725.54,2526.79,2877.11,599.70,581.85,34.78,0000 0000 0000 0000 000000
2017-03-31 02:04:44,0.13,2.15,0.00,25.10,27.42,30.43,14.17,49.23,1000.51,2029.03,2723.24,2525.19,2875.26,600.01,582.44,34.83,0000 0000 0000 0000 000000
2017-03-31 02:09:45,0.14,2.16,0.00,24.81,27.42,30.38,14.11,49.17,1000.66,2029.01,2720.82,2523.56,2873.32,599.88,582.99,34.88,0000 0000 0000 0000 000000
2017-03-31 02:14:47,0.14,2.17,0.00,24.85,27.40,30.37,14.14,49.23,1000.91,2029.01,2718.44,2521.91,2871.43,599.95,583.08,34.93,0000 0000 0000 0000 000000
2017-03-31 02:19:49,0.14,2.17,0.00,25.15,27.40,30.42,14.13,49.23,1000.98,2029.04,2716.16,2520.32,2869.56,599.96,582.60,34.98,0000 0000 0000 0000 000000
2017-03-31 02:24:50,0.14,2.18,0.00,25.20,27.40,30.46,14.12,49.26,1001.01,2029.01,2713.83,2518.65,2867.67,599.70,582.25,35.03,0000 0000 0000 0000 000000
2017-03-31 02:29:51,0.13,2.19,0.00,24.90,27.40,30.40,14.19,49.24,1001.34,2029.01,2711.53,2517.05,2865.81,600.26,583.53,35.08,0000 0000 0000 0000 000000
2017-03-31 02:34:52,0.14,2.19,0.00,24.77,27.40,30.36,14.18,49.15,1001.48,2029.01,2709.17,2515.46,2863.95,599.91,583.65,35.13,0000 0000 0000 0000 000000
2017-03-31 02:39:54,0.14,2.20,0.00,25.02,27.39,30.40,14.13,49.08,1001.48,2029.02,2706.89,2513.85,2862.13,599.84,583.03,35.18,0000 0000 0000 0000 000000
2017-03-31 02:44:54,0.12,2.21,0.00,25.17,27.38,30.42,14.13,49.18,1001.53,2029.02,2704.74,2512.45,2860.43,600.01,582.94,35.23,0000 0000 0000 0000 000000
2017-03-31 02:49:56,0.13,2.21,0.00,24.97,27.38,30.42,14.12,49.17,1001.79,2029.01,2702.66,2510.88,2858.67,599.76,583.11,35.28,0000 0000 0000 0000 000000
2017-03-31 02:54:57,0.13,2.22,0.00,24.72,27.37,30.36,14.20,49.24,1001.88,2029.01,2700.41,2509.41,2856.90,600.30,584.36,35.33,0000 0000 0000 0000 000000
2017-03-31 02:59:58,0.13,2.23,0.00,24.88,27.37,30.38,14.18,49.10,1001.86,2029.00,2698.24,2507.83,2855.16,600.23,583.83,35.38,0000 0000 0000 0000 000000
2017-03-31 03:04:59,0.12,2.24,0.00,25.12,27.36,30.42,14.14,49.40,1001.77,2029.00,2696.17,2506.43,2853.45,599.97,583.09,35.43,0000 0000 0000 0000 000000
2017-03-31 03:10:00,0.13,2.24,0.00,25.16,27.36,30.43,14.06,49.35,1001.75,2029.01,2694.09,2504.92,2851.75,599.69,582.91,35.48,0000 0000 0000 0000 000000
2017-03-31 03:15:02,0.13,2.25,0.00,24.84,27.35,30.39,14.11,49.49,1001.97,2029.03,2692.00,2503.54,2850.05,599.42,583.22,35.53,0000 0000 0000 0000 000000
2017-03-31 03:20:03,0.12,2.26,0.00,24.75,27.35,30.35,14.14,49.17,1002.32,2029.02,2689.88,2502.05,2848.44,599.78,583.99,35.58,0000 0000 0000 0000 000000
2017-03-31 03:25:05,0.13,2.26,0.00,24.97,27.35,30.38,14.10,49.08,1002.46,2029.02,2687.90,2500.66,2846.74,599.88,583.81,35.64,0000 0000 0000 0000 000000
2017-03-31 03:30:06,0.11,2.27,0.00,25.13,27.35,30.41,14.16,49.13,1002.60,2029.02,2685.97,2499.20,2845.09,599.79,583.46,35.69,0000 0000 0000 0000 000000
2017-03-31 03:35:07,0.13,2.27,0.00,25.05,27.35,30.41,14.13,49.23,1002.59,2029.01,2683.93,2497.75,2843.43,599.96,583.72,35.74,0000 0000 0000 0000 000000
2017-03-31 03:40:09,0.13,2.28,0.00,24.73,27.33,30.36,14.12,49.31,1002.87,2029.02,2681.74,2496.32,2841.68,599.43,584.01,35.79,0000 0000 0000 0000 000000
2017-03-31 03:45:11,0.13,2.29,0.00,24.72,27.32,30.35,14.18,49.20,1002.97,2029.02,2679.56,2494.87,2839.91,599.72,584.41,35.84,0000 0000 0000 0000 000000
2017-03-31 03:50:12,0.12,2.29,0.00,25.01,27.32,30.39,14.17,49.16,1003.33,2029.01,2677.53,2493.54,2838.27,599.83,584.17,35.89,0000 0000 0000 0000 000000
2017-03-31 03:55:13,0.14,2.30,0.00,25.21,27.32,30.41,14.14,49.20,1003.42,2029.03,2675.56,2491.99,2836.59,600.01,583.96,35.94,0000 0000 0000 0000 000000
2017-03-31 04:00:15,0.13,2.31,0.00,25.13,27.32,30.43,14.17,49.11,1003.44,2029.04,2673.43,2490.43,2834.71,600.27,584.37,35.99,0000 0000 0000 0000 000000
2017-03-31 04:05:16,0.15,2.32,0.00,24.75,27.32,30.36,14.22,49.12,1003.44,2029.02,2671.25,2488.81,2832.91,600.02,584.84,36.04,0000 0000 0000 0000 000000
2017-03-31 04:10:17,0.12,2.32,0.00,24.74,27.31,30.36,14.20,49.14,1003.50,2029.03,2669.12,2487.45,2831.25,600.21,585.04,36.09,0000 0000 0000 0000 000000
2017-03-31 04:15:18,0.13,2.33,0.00,25.00,27.30,30.41,14.19,49.20,1003.71,2029.02,2667.09,2485.90,2829.53,600.07,584.57,36.14,0000 0000 0000 0000 000000
2017-03-31 04:20:19,0.12,2.34,0.00,25.19,27.32,30.44,14.19,49.19,1003.82,2029.01,2665.15,2484.50,2827.87,600.26,584.46,36.19,0000 0000 0000 0000 000000
2017-03-31 04:25:20,0.11,2.34,0.00,25.13,27.32,30.45,14.11,49.18,1003.92,2029.00,2663.19,2483.10,2826.26,599.96,584.34,36.24,0000 0000 0000 0000 000000
2017-03-31 04:30:21,0.13,2.35,0.00,24.75,27.32,30.38,14.21,49.25,1003.92,2029.00,2661.20,2481.72,2824.67,599.67,584.90,36.29,0000 0000 0000 0000 000000
2017-03-31 04:35:22,0.11,2.35,0.00,24.70,27.30,30.36,14.16,49.20,1003.92,2029.01,2659.25,2480.41,2823.10,599.67,584.91,36.34,0000 0000 0000 0000 000000
2017-03-31 04:40:24,0.12,2.36,0.00,24.94,27.30,30.42,14.21,49.12,1003.94,2029.01,2657.37,2479.04,2821.56,600.37,585.09,36.39,0000 0000 0000 0000 000000
2017-03-31 04:45:25,0.12,2.37,0.00,25.09,27.30,30.46,14.16,49.14,1003.96,2029.00,2655.59,2477.65,2819.98,599.72,584.25,36.44,0000 0000 0000 0000 000000
2017-03-31 04:50:27,0.11,2.37,0.00,25.20,27.31,30.48,14.24,49.34,1004.03,2029.00,2653.63,2476.35,2818.42,600.20,584.44,36.49,0000 0000 0000 0000 000000
2017-03-31 04:55:28,0.13,2.38,0.00,24.96,27.32,30.46,14.17,49.27,1004.22,2029.00,2651.60,2474.86,2816.74,600.17,585.06,36.54,0000 0000 0000 0000 000000
2017-03-31 05:00:29,0.12,2.39,0.00,24.68,27.31,30.40,14.24,49.16,1004.39,2029.00,2649.52,2473.46,2815.24,600.00,585.54,36.60,0000 0000 0000 0000 000000
2017-03-31 05:05:30,0.12,2.39,0.00,24.83,27.31,30.43,14.19,49.12,1004.56,2029.00,2647.53,2472.08,2813.62,600.00,585.24,36.65,0000 0000 0000 0000 000000
2017-03-31 05:10:31,0.12,2.40,0.00,25.05,27.32,30.46,14.21,49.13,1004.64,2029.00,2645.68,2470.71,2812.07,599.97,584.98,36.70,0000 0000 0000 0000 000000
2017-03-31 05:15:33,0.12,2.40,0.00,25.10,27.32,30.51,14.23,49.29,1004.65,2029.00,2643.86,2469.44,2810.55,600.16,585.03,36.75,0000 0000 0000 0000 000000
2017-03-31 05:20:34,0.13,2.41,0.00,24.88,27.32,30.48,14.26,49.43,1004.70,2029.00,2641.84,2468.01,2808.89,600.23,585.56,36.80,0000 0000 0000 0000 000000
2017-03-31 05:25:36,0.13,2.42,0.00,24.93,27.32,30.48,14.23,49.18,1004.68,2029.00,2639.86,2466.59,2807.26,600.23,585.33,36.85,0000 0000 0000 0000 000000
2017-03-31 05:30:37,0.12,2.42,0.00,25.03,27.32,30.51,14.21,49.35,1004.89,2029.00,2637.86,2465.26,2805.63,599.90,584.99,36.90,0000 0000 0000 0000 000000
2017-03-31 05:35:39,0.12,2.43,0.00,25.07,27.32,30.50,14.19,49.26,1004.96,2029.00,2636.01,2463.89,2804.11,599.96,585.08,36.95,0000 0000 0000 0000 000000
2017-03-31 05:40:40,0.13,2.44,0.00,24.98,27.32,30.48,14.13,49.29,1005.28,2028.99,2634.10,2462.53,2802.56,599.71,585.13,37.00,0000 0000 0000 0000 000000
2017-03-31 05:45:41,0.11,2.44,0.00,25.03,27.32,30.49,14.24,49.25,1005.39,2028.99,2632.23,2461.19,2800.99,600.36,585.75,37.05,0000 0000 0000 0000 000000
2017-03-31 05:50:42,0.12,2.45,0.00,25.07,27.32,30.50,14.14,49.09,1005.43,2028.99,2630.36,2459.84,2799.50,599.84,585.27,37.10,0000 0000 0000 0000 000000
2017-03-31 05:55:44,0.13,2.46,0.00,25.06,27.32,30.50,14.20,49.19,1005.50,2028.99,2628.46,2458.47,2797.90,599.76,585.27,37.15,0000 0000 0000 0000 000000
2017-03-31 06:00:45,0.11,2.46,0.00,25.06,27.32,30.49,14.22,49.25,1005.44,2028.99,2626.52,2457.17,2796.27,599.84,585.34,37.20,0000 0000 0000 0000 000000
2017-03-31 06:05:47,0.13,2.47,0.00,25.08,27.32,30.49,14.16,49.26,1005.69,2028.99,2624.69,2455.83,2794.72,599.75,585.40,37.25,0000 0000 0000 0000 000000
2017-03-31 06:10:48,0.11,2.47,0.00,25.07,27.32,30.49,14.15,49.27,1005.88,2028.99,2622.86,2454.59,2793.30,600.01,585.59,37.30,0000 0000 0000 0000 000000
2017-03-31 06:15:49,0.12,2.48,0.00,25.07,27.32,30.48,14.19,49.18,1005.96,2028.98,2621.04,2453.21,2791.69,600.09,585.79,37.35,0000 0000 0000 0000 000000
2017-03-31 06:20:50,0.12,2.49,0.00,25.07,27.32,30.47,14.15,49.20,1006.20,2028.99,2619.20,2451.88,2790.16,599.96,585.58,37.40,0000 0000 0000 0000 000000
2017-03-31 06:25:51,0.13,2.49,0.00,25.04,27.32,30.50,14.17,49.20,1006.34,2028.99,2617.30,2450.56,2788.61,599.90,585.82,37.45,0000 0000 0000 0000 000000
2017-03-31 06:30:52,0.11,2.50,0.00,25.04,27.32,30.50,14.20,49.33,1006.36,2028.99,2615.36,2449.22,2787.03,599.98,586.01,37.51,0000 0000 0000 0000 000000
2017-03-31 06:35:54,0.12,2.51,0.00,25.04,27.32,30.50,14.24,49.38,1006.38,2028.98,2613.49,2447.87,2785.51,600.20,586.19,37.56,0000 0000 0000 0000 000000
2017-03-31 06:40:55,0.12,2.51,0.00,25.04,27.32,30.51,14.24,49.41,1006.60,2028.99,2611.68,2446.61,2784.09,600.08,586.17,37.61,0000 0000 0000 0000 000000
2017-03-31 06:45:56,0.11,2.52,0.00,25.03,27.32,30.51,14.24,49.29,1006.84,2028.99,2609.91,2445.42,2782.60,600.09,586.31,37.66,0000 0000 0000 0000 000000
2017-03-31 06:50:57,0.11,2.53,0.00,25.04,27.32,30.52,14.22,49.27,1006.86,2028.98,2608.06,2444.07,2781.04,600.24,586.51,37.71,0000 0000 0000 0000 000000
2017-03-31 06:55:59,0.11,2.53,0.00,25.01,27.33,30.53,14.20,49.32,1006.85,2028.98,2606.46,2442.84,2779.67,599.96,586.30,37.76,0000 0000 0000 0000 000000
2017-03-31 07:01:00,0.12,2.54,0.00,25.02,27.33,30.53,14.19,49.40,1006.85,2028.97,2604.52,2441.62,2778.20,599.91,586.23,37.81,0000 0000 0000 0000 000000
2017-03-31 07:06:02,0.12,2.54,0.00,25.03,27.34,30.53,14.22,49.23,1006.88,2028.99,2602.57,2440.24,2776.66,599.77,586.13,37.86,0000 0000 0000 0000 000000
2017-03-31 07:11:03,0.13,2.55,0.00,25.05,27.34,30.54,14.24,49.27,1007.16,2028.98,2600.67,2438.90,2775.15,600.15,586.57,37.91,0000 0000 0000 0000 000000
2017-03-31 07:16:05,0.13,2.56,0.00,25.07,27.35,30.52,14.30,49.23,1007.38,2028.99,2598.73,2437.57,2773.56,600.07,586.59,37.96,0000 0000 0000 0000 000000
2017-03-31 07:21:05,0.11,2.56,0.00,25.07,27.35,30.53,14.21,49.15,1007.58,2028.97,2596.82,2436.26,2771.96,600.28,586.93,38.01,0000 0000 0000 0000 000000
2017-03-31 07:26:07,0.13,2.57,0.00,25.08,27.35,30.53,14.30,49.19,1007.79,2028.98,2594.90,2434.82,2770.42,600.53,587.26,38.06,0000 0000 0000 0000 000000
2017-03-31 07:31:08,0.12,2.58,0.00,25.09,27.35,30.55,14.25,49.32,1007.84,2028.97,2593.03,2433.53,2768.86,600.05,586.79,38.11,0000 0000 0000 0000 000000
2017-03-31 07:36:10,0.11,2.58,0.00,25.08,27.35,30.55,14.26,49.21,1007.86,2028.98,2591.24,2432.29,2767.42,600.39,587.18,38.16,0000 0000 0000 0000 000000
2017-03-31 07:41:11,0.12,2.59,0.00,25.09,27.35,30.55,14.33,49.32,1007.93,2028.98,2589.41,2430.99,2765.86,600.33,587.12,38.21,0000 0000 0000 0000 000000
2017-03-31 07:46:12,0.13,2.59,0.00,25.10,27.35,30.54,14.30,49.28,1008.23,2028.97,2587.59,2429.71,2764.39,599.85,586.82,38.26,0000 0000 0000 0000 000000
2017-03-31 07:51:14,0.11,2.60,0.00,25.07,27.35,30.53,14.25,49.30,1008.31,2028.98,2585.78,2428.49,2762.86,600.11,587.17,38.31,0000 0000 0000 0000 000000
2017-03-31 07:56:15,0.12,2.61,0.00,25.07,27.36,30.53,14.25,49.48,1008.30,2028.97,2583.82,2427.03,2761.27,599.92,587.08,38.37,0000 0000 0000 0000 000000
2017-03-31 08:01:16,0.14,2.61,0.00,25.08,27.37,30.55,14.31,49.40,1008.31,2028.94,2581.87,2425.65,2759.64,600.28,587.23,38.42,0000 0000 0000 0000 000000
2017-03-31 08:06:17,0.13,2.62,0.00,25.06,27.37,30.54,14.29,49.51,1008.31,2028.95,2579.78,2424.24,2757.97,599.91,586.99,38.47,0000 0000 0000 0000 000000
2017-03-31 08:11:19,0.14,2.63,0.00,25.08,27.37,30.55,14.26,49.38,1008.48,2028.96,2577.64,2422.70,2756.22,600.08,587.21,38.52,0000 0000 0000 0000 000000
2017-03-31 08:16:20,0.14,2.63,0.00,25.10,27.37,30.56,14.28,49.48,1008.80,2028.96,2575.49,2421.17,2754.44,600.07,587.23,38.57,0000 0000 0000 0000 000000
2017-03-31 08:21:21,0.17,2.64,0.00,25.11,27.37,30.58,14.26,49.38,1008.88,2028.95,2573.07,2419.41,2752.45,600.02,587.36,38.62,0000 0000 0000 0000 000000
2017-03-31 08:26:23,0.16,2.65,0.00,25.13,27.37,30.61,14.24,49.33,1009.21,2028.83,2570.37,2417.53,2750.39,600.27,587.73,38.67,0000 0000 0000 0000 000000
2017-03-31 08:31:24,0.14,2.66,0.00,25.15,27.37,30.61,14.26,49.32,1009.29,2028.49,2567.60,2415.61,2748.24,599.98,587.47,38.72,0000 0000 0000 0000 000000
2017-03-31 08:36:25,0.18,2.67,0.00,25.17,27.37,30.60,14.29,49.36,1009.29,2028.53,2564.98,2413.74,2746.12,600.12,587.47,38.77,0000 0000 0000 0000 000000
2017-03-31 08:41:26,0.19,2.68,0.00,25.19,27.37,30.59,14.29,49.29,1009.29,2028.52,2562.13,2411.75,2743.81,599.99,587.41,38.82,0000 0000 0000 0000 000000
2017-03-31 08:46:28,0.19,2.69,0.00,25.20,27.39,30.59,14.28,49.02,1009.29,2028.41,2559.24,2409.62,2741.33,600.04,587.42,38.87,0000 0000 0000 0000 000000
2017-03-31 08:51:29,0.18,2.70,0.00,25.19,27.40,30.60,14.19,48.94,1009.29,2028.34,2556.34,2407.48,2738.91,600.07,587.51,38.92,0000 0000 0000 0000 000000
2017-03-31 08:56:31,0.21,2.71,0.00,25.17,27.40,30.64,14.31,49.13,1009.30,2028.30,2553.17,2405.29,2736.40,600.01,587.50,38.97,0000 0000 0000 0000 000000
2017-03-31 09:01:32,0.23,2.72,0.00,25.15,27.40,30.69,14.25,49.15,1009.31,2028.18,2549.72,2402.92,2733.65,599.88,587.38,39.02,0000 0000 0000 0000 000000
2017-03-31 09:06:34,0.21,2.73,0.00,25.12,27.42,30.71,14.33,49.21,1009.33,2028.06,2546.26,2400.49,2730.91,600.20,587.77,39.07,0000 0000 0000 0000 000000
2017-03-31 09:11:35,0.24,2.74,0.00,25.10,27.42,30.70,14.43,49.13,1009.55,2028.03,2542.76,2398.00,2728.08,600.63,588.12,39.12,0000 0000 0000 0000 000000
2017-03-31 09:16:36,0.27,2.75,0.00,25.10,27.42,30.69,14.23,49.07,1009.76,2028.01,2538.79,2395.23,2724.92,599.63,587.49,39.17,0000 0000 0000 0000 000000
2017-03-31 09:21:38,0.28,2.77,0.00,25.06,27.42,30.68,14.31,49.10,1009.76,2028.01,2534.59,2392.33,2721.59,600.02,587.95,39.22,0000 0000 0000 0000 000000
2017-03-31 09:26:39,0.29,2.78,0.00,25.02,27.42,30.67,14.31,49.02,1009.77,2028.01,2530.31,2389.35,2718.16,600.12,588.18,39.28,0000 0000 0000 0000 000000
2017-03-31 09:31:41,0.30,2.80,0.00,25.00,27.42,30.67,14.30,49.06,1009.78,2028.01,2525.89,2386.28,2714.69,600.01,588.03,39.33,0000 0000 0000 0000 000000
2017-03-31 09:36:42,0.30,2.81,0.00,25.02,27.42,30.67,14.16,49.17,1009.80,2028.00,2521.32,2383.22,2711.13,599.87,587.96,39.38,0000 0000 0000 0000 000000
2017-03-31 09:41:43,0.32,2.83,0.00,24.98,27.42,30.66,14.31,49.33,1009.92,2028.00,2516.60,2380.00,2707.50,600.01,588.19,39.43,0000 0000 0000 0000 000000
2017-03-31 09:46:45,0.32,2.84,0.00,24.93,27.42,30.65,14.21,49.19,1010.10,2028.01,2511.77,2376.73,2703.79,599.92,588.29,39.48,0000 0000 0000 0000 000000
2017-03-31 09:51:46,0.33,2.86,0.00,24.92,27.41,30.65,14.30,49.32,1010.15,2028.00,2506.81,2373.30,2699.92,600.20,588.59,39.53,0000 0000 0000 0000 000000
2017-03-31 09:56:47,0.35,2.88,0.00,24.94,27.40,30.65,14.27,49.26,1009.88,2028.01,2501.66,2369.84,2695.94,600.14,588.36,39.58,0000 0000 0000 0000 000000
2017-03-31 10:01:48,0.35,2.90,0.00,24.93,27.40,30.63,14.30,49.32,1009.85,2028.01,2496.45,2366.38,2691.92,600.08,588.28,39.63,0000 0000 0000 0000 000000
2017-03-31 10:06:50,0.37,2.92,0.00,24.93,27.40,30.65,14.29,49.34,1010.02,2028.01,2491.05,2362.78,2687.75,600.06,588.38,39.68,0000 0000 0000 0000 000000
2017-03-31 10:11:51,0.38,2.94,0.00,24.90,27.40,30.64,14.33,49.40,1009.88,2028.03,2485.46,2359.01,2683.55,600.25,588.56,39.73,0000 0000 0000 0000 000000
2017-03-31 10:16:52,0.38,2.96,0.00,24.88,27.39,30.64,14.41,49.41,1009.80,2028.03,2479.85,2355.20,2679.23,600.00,588.38,39.78,0000 0000 0000 0000 000000
2017-03-31 10:21:54,0.36,2.97,0.00,24.89,27.37,30.63,14.27,49.31,1009.79,2028.01,2474.47,2351.54,2675.05,600.11,588.33,39.83,0000 0000 0000 0000 000000
2017-03-31 10:26:55,0.37,2.99,0.00,24.88,27.37,30.63,14.35,49.27,1009.88,2028.03,2469.07,2347.90,2670.93,600.12,588.34,39.88,0000 0000 0000 0000 000000
2017-03-31 10:31:56,0.37,3.01,0.00,24.76,27.37,30.60,14.26,49.07,1010.13,2028.02,2463.64,2344.19,2666.78,599.76,588.63,39.93,0000 0000 0000 0000 000000
2017-03-31 10:36:57,0.37,3.03,0.00,24.63,27.36,30.67,14.28,49.07,1010.27,2028.02,2458.22,2340.56,2662.60,599.93,589.05,39.98,0000 0000 0000 0000 000000
2017-03-31 10:41:59,0.36,3.05,0.00,24.57,27.35,30.73,14.28,49.08,1010.27,2028.03,2452.92,2336.96,2658.57,599.63,588.86,40.03,0000 0000 0000 0000 000000
2017-03-31 10:47:00,0.35,3.07,0.00,24.52,27.35,30.77,14.40,49.20,1010.27,2028.03,2447.73,2333.48,2654.63,600.00,589.33,40.08,0000 0000 0000 0000 000000
2017-03-31 10:52:01,0.35,3.09,0.00,24.50,27.34,30.80,14.30,49.00,1010.27,2028.05,2442.67,2330.12,2650.79,600.03,589.38,40.14,0000 0000 0000 0000 000000
2017-03-31 10:57:02,0.34,3.10,0.00,24.58,27.33,30.82,14.29,49.08,1010.28,2028.04,2437.71,2326.82,2647.03,600.09,589.29,40.19,0000 0000 0000 0000 000000
2017-03-31 11:02:04,0.33,3.12,0.00,24.87,27.35,30.73,14.25,49.15,1010.28,2028.03,2432.95,2323.62,2643.41,599.99,588.57,40.24,0000 0000 0000 0000 000000
2017-03-31 11:07:05,0.33,3.14,0.00,24.52,27.35,30.70,14.32,49.17,1010.36,2028.01,2428.20,2320.41,2639.84,600.00,589.27,40.29,0000 0000 0000 0000 000000
2017-03-31 11:12:06,0.32,3.16,0.00,24.34,27.35,30.74,14.35,49.13,1010.72,2028.02,2423.29,2317.28,2636.20,600.07,590.05,40.34,0000 0000 0000 0000 000000
2017-03-31 11:17:08,0.32,3.17,0.00,24.54,27.35,30.78,14.33,48.98,1010.75,2028.00,2418.58,2314.18,2632.70,599.97,589.49,40.39,0000 0000 0000 0000 000000
2017-03-31 11:22:09,0.32,3.19,0.00,24.50,27.35,30.87,14.43,48.88,1010.65,2028.00,2413.86,2311.10,2629.22,600.30,589.80,40.44,0000 0000 0000 0000 000000
2017-03-31 11:27:10,0.32,3.20,0.00,24.44,27.35,30.95,14.34,49.01,1010.71,2028.00,2409.12,2308.00,2625.75,599.73,589.37,40.49,0000 0000 0000 0000 000000
2017-03-31 11:32:11,0.32,3.22,0.00,24.39,27.35,30.95,14.39,49.10,1010.75,2028.00,2404.38,2304.99,2622.38,599.92,589.73,40.54,0000 0000 0000 0000 000000
2017-03-31 11:37:13,0.32,3.24,0.00,24.40,27.35,30.89,14.34,48.94,1010.75,2028.00,2399.71,2302.05,2619.00,600.13,589.93,40.59,0000 0000 0000 0000 000000
2017-03-31 11:42:14,0.32,3.25,0.00,24.40,27.35,30.94,14.32,48.90,1010.74,2028.00,2395.05,2299.04,2615.60,599.87,589.66,40.64,0000 0000 0000 0000 000000
2017-03-31 11:47:15,0.32,3.27,0.00,24.40,27.35,30.91,14.32,48.97,1010.75,2028.00,2390.44,2296.05,2612.16,600.05,589.74,40.69,0000 0000 0000 0000 000000
2017-03-31 11:52:16,0.32,3.29,0.00,24.56,27.35,30.88,14.36,48.88,1010.76,2028.00,2385.93,2293.09,2608.81,599.85,589.28,40.74,0000 0000 0000 0000 000000
2017-03-31 11:57:17,0.32,3.30,0.00,24.84,27.35,30.80,14.31,48.81,1010.76,2028.00,2381.40,2290.12,2605.42,599.65,588.60,40.79,0000 0000 0000 0000 000000
2017-03-31 12:02:18,0.33,3.32,0.00,24.44,27.35,30.77,14.35,49.01,1010.77,2028.00,2376.67,2287.10,2601.95,600.21,589.94,40.84,0000 0000 0000 0000 000000
2017-03-31 12:07:20,0.33,3.34,0.00,24.34,27.37,30.81,14.34,49.06,1010.78,2028.00,2371.96,2284.08,2598.51,599.87,589.78,40.89,0000 0000 0000 0000 000000
2017-03-31 12:12:21,0.30,3.35,0.00,24.54,27.37,30.86,14.26,48.94,1010.77,2028.00,2367.60,2281.24,2595.27,599.73,589.29,40.94,0000 0000 0000 0000 000000
2017-03-31 12:17:22,0.31,3.37,0.00,24.50,27.37,30.96,14.39,48.91,1010.76,2028.00,2363.23,2278.36,2592.00,599.91,589.52,40.99,0000 0000 0000 0000 000000
2017-03-31 12:22:23,0.30,3.38,0.00,24.46,27.37,31.02,14.35,48.93,1010.78,2028.00,2358.84,2275.56,2588.81,599.83,589.53,41.04,0000 0000 0000 0000 000000
2017-03-31 12:27:25,0.30,3.40,0.00,24.43,27.37,31.00,14.31,49.01,1010.79,2028.00,2354.51,2272.86,2585.67,599.71,589.57,41.10,0000 0000 0000 0000 000000
2017-03-31 12:32:26,0.28,3.41,0.00,24.40,27.37,31.01,14.37,48.99,1010.86,2028.00,2350.41,2270.22,2582.74,599.94,589.87,41.15,0000 0000 0000 0000 000000
2017-03-31 12:37:27,0.29,3.43,0.00,24.40,27.37,30.97,14.36,48.90,1010.83,2028.00,2346.28,2267.56,2579.74,599.89,589.74,41.20,0000 0000 0000 0000 000000
2017-03-31 12:42:29,0.29,3.44,0.00,24.48,27.37,30.92,14.42,49.09,1010.76,2028.00,2342.14,2264.96,2576.75,600.09,589.77,41.25,0000 0000 0000 0000 000000
2017-03-31 12:47:30,0.29,3.46,0.00,24.84,27.37,30.84,14.36,48.98,1010.76,2028.00,2338.04,2262.38,2573.77,600.34,589.34,41.30,0000 0000 0000 0000 000000
2017-03-31 12:52:32,0.29,3.47,0.00,24.52,27.40,30.79,14.32,49.03,1010.76,2027.99,2333.89,2259.71,2570.74,599.85,589.42,41.35,0000 0000 0000 0000 000000
2017-03-31 12:57:33,0.28,3.49,0.00,24.31,27.40,30.88,14.44,49.08,1010.76,2027.98,2329.89,2257.16,2567.83,600.15,590.08,41.40,0000 0000 0000 0000 000000